Covington, KY

5:35 AM EST on December 06, 2019 (GMT -0500)
Cincinnati-Northern KY International

Weather History for KCVG - October, 2019

Change the Weather History Date:

Monday, October 21, 2019

  Actual Average Record
Temperature  
Mean Temperature 65 °F 54 °F  
Max Temperature 75 °F 64 °F 85 °F (1953)
Min Temperature 55 °F 44 °F 20 °F (1952)
Degree Days  
Heating Degree Days 0 11  
Month to date heating degree days 114 176  
Since 1 July heating degree days 114 234  
Cooling Degree Days 0 0  
Month to date cooling degree days 55 16  
Year to date cooling degree days 1497 1121  
Growing Degree Days 15 (Base 50)    
Moisture  
Dew Point 56 °F    
Average Humidity 80    
Maximum Humidity 93    
Minimum Humidity 53    
Precipitation  
Precipitation 0.04 in 0.11 in 1.46 in (1929)
Month to date precipitation 1.15 2.24  
Year to date precipitation 43.57 34.66  
Snow  
Snow 0.00 in 0.00 in 0.00 in ()
Month to date snowfall 0.0 0.2  
Since 1 July snowfall 0.0 0.2  
Since 1 September snowfall 0.0 0.2  
Snow Depth 0.00 in    
Sea Level Pressure  
Sea Level Pressure 29.80 in    
Wind  
Wind Speed 11 mph ()    
Max Wind Speed 28 mph    
Max Gust Speed 33 mph    
Visibility 9.9 miles    
Events Rain    
T = Trace of Precipitation, MM = Missing Value Source: Averaged Metar Reports

Daily Weather History Graph

Daily Weather History Graph

Search for Another Location

Airport or City:

Astronomy

Oct. 21, 2019 Rise Set
Actual Time 7:54 AM EDT 6:51 PM EDT
Civil Twilight 7:26 AM EDT 7:18 PM EDT
Nautical Twilight 6:55 AM EDT 7:50 PM EDT
Astronomical Twilight 6:24 AM EDT 8:20 PM EDT
Moon 12:03 AM EDT (10/21) 3:09 PM EDT (10/21)
Length of Visible Light 11h 52m
Length of Day
10h 57m
Waning Gibbous, 48% of the Moon is Illuminated
Oct 21
Waning Gibbous
Oct 27
New
Nov 4
First Quarter
Nov 12
Full
Nov 19
Last Quarter

Hourly Weather History & Observations

Time (EDT) Temp. Dew Point Humidity Pressure Visibility Wind Dir Wind Speed Gust Speed Precip Events Conditions
12:52 AM 57.0 °F 54.0 °F 89% 29.93 in 10.0 mi South 6.9 mph - N/A   Partly Cloudy
1:52 AM 55.9 °F 54.0 °F 93% 29.91 in 9.0 mi South 6.9 mph - N/A   Partly Cloudy
2:52 AM 57.9 °F 55.0 °F 90% 29.88 in 10.0 mi SSE 11.5 mph - N/A   Overcast
3:52 AM 57.9 °F 55.0 °F 90% 29.87 in 10.0 mi SE 9.2 mph - N/A   Scattered Clouds
4:28 AM 57.0 °F 54.0 °F 89% 29.88 in 10.0 mi SE 9.2 mph - N/A   Mostly Cloudy
4:52 AM 57.0 °F 55.0 °F 93% 29.86 in 10.0 mi SE 6.9 mph - N/A   Overcast
5:29 AM 57.9 °F 55.0 °F 90% 29.89 in 10.0 mi SE 10.4 mph - N/A   Overcast
5:52 AM 57.9 °F 55.0 °F 90% 29.87 in 10.0 mi SSE 11.5 mph - N/A   Overcast
6:52 AM 57.9 °F 55.0 °F 90% 29.86 in 10.0 mi SE 13.8 mph - N/A   Overcast
7:52 AM 57.9 °F 55.0 °F 90% 29.84 in 10.0 mi SE 16.1 mph - N/A   Overcast
8:52 AM 59.0 °F 55.0 °F 87% 29.82 in 10.0 mi SE 16.1 mph 21.9 mph N/A   Overcast
9:52 AM 60.1 °F 55.0 °F 83% 29.81 in 10.0 mi SE 18.4 mph 24.2 mph N/A   Overcast
10:52 AM 64.0 °F 55.9 °F 75% 29.78 in 10.0 mi SE 18.4 mph 26.5 mph N/A   Mostly Cloudy
11:52 AM 68.0 °F 57.0 °F 68% 29.76 in 10.0 mi SSE 16.1 mph 25.3 mph N/A   Mostly Cloudy
12:52 PM 66.9 °F 57.9 °F 73% 29.78 in 10.0 mi South 11.5 mph - 0.00 in Rain Light Rain
1:52 PM 71.1 °F 57.9 °F 63% 29.72 in 10.0 mi SSE 18.4 mph - 0.00 in   Mostly Cloudy
2:52 PM 73.9 °F 57.9 °F 57% 29.70 in 10.0 mi South 17.3 mph 28.8 mph N/A   Overcast
3:52 PM 75.0 °F 57.0 °F 53% 29.70 in 10.0 mi South 17.3 mph 29.9 mph N/A   Overcast
4:52 PM 73.0 °F 55.9 °F 55% 29.72 in 10.0 mi SSW 17.3 mph 29.9 mph 0.00 in Rain Light Rain
5:52 PM 68.0 °F 57.0 °F 68% 29.73 in 10.0 mi South 13.8 mph 25.3 mph 0.00 in Rain Light Rain
6:52 PM 64.9 °F 57.9 °F 78% 29.71 in 10.0 mi South 19.6 mph 26.5 mph 0.00 in Rain Light Rain
7:52 PM 63.0 °F 57.9 °F 84% 29.74 in 8.0 mi South 15.0 mph - 0.03 in Rain Light Rain
8:52 PM 63.0 °F 57.0 °F 81% 29.75 in 10.0 mi South 16.1 mph 21.9 mph 0.01 in   Overcast
9:52 PM 62.1 °F 57.0 °F 84% 29.75 in 10.0 mi SSW 15.0 mph - N/A   Overcast
10:39 PM 62.1 °F 55.9 °F 80% 29.77 in 10.0 mi South 12.7 mph - N/A   Overcast
10:52 PM 62.1 °F 55.9 °F 80% 29.76 in 10.0 mi South 12.7 mph 21.9 mph N/A   Overcast
11:52 PM 62.1 °F 55.9 °F 80% 29.76 in 10.0 mi SSW 10.4 mph 21.9 mph N/A   Overcast